| time (UTC) | temp F | wind direction | speed MPH | gust MPH | rain 1hr in | rain 24hr in | rain mn in | humidity % | barometer mb |
| 20260508023004 | 46 | 320 | 5.0 | 0.0 | 0.00 | 0.00 | 0.00 | 100 | 1012.0 |
| 20260508021503 | 46 | 320 | 5.0 | 0.0 | 0.00 | 0.00 | 0.00 | 100 | 1012.0 |
| 20260508011504 | 46 | 340 | 2.0 | 0.0 | 0.00 | 0.00 | 0.00 | 100 | 1013.0 |
| 20260508010005 | 46 | 350 | 5.0 | 0.0 | 0.00 | 0.00 | 0.00 | 100 | 1013.0 |
| 20260508004503 | 46 | 350 | 5.0 | 0.0 | 0.00 | 0.00 | 0.00 | 100 | 1013.0 |
| 20260508001504 | 48 | 350 | 5.0 | 0.0 | 0.00 | 0.00 | 0.00 | 100 | 1013.0 |
| 20260508000004 | 48 | 0 | 2.0 | 0.0 | 0.00 | 0.00 | 0.00 | 100 | 1013.0 |
| 20260507234503 | 48 | 0 | 2.0 | 0.0 | 0.00 | 0.00 | 0.00 | 100 | 1013.0 |
| 20260507233004 | 48 | 0 | 2.0 | 0.0 | 0.00 | 0.00 | 0.00 | 100 | 1013.0 |
| 20260507231503 | 48 | 0 | 2.0 | 0.0 | 0.00 | 0.00 | 0.00 | 100 | 1013.0 |
| 20260507230005 | 50 | 0 | 2.0 | 0.0 | 0.00 | 0.00 | 0.00 | 93 | 1013.0 |
| 20260507224504 | 50 | 0 | 2.0 | 0.0 | 0.00 | 0.00 | 0.00 | 93 | 1013.0 |
| 20260507223004 | 50 | 0 | 2.0 | 0.0 | 0.00 | 0.00 | 0.00 | 100 | 1013.0 |
| 20260507221504 | 50 | 0 | 2.0 | 0.0 | 0.00 | 0.00 | 0.00 | 100 | 1013.0 |
| 20260507220005 | 50 | 120 | 3.0 | 0.0 | 0.00 | 0.00 | 0.00 | 93 | 1013.0 |
| 20260507214504 | 50 | 120 | 3.0 | 0.0 | 0.00 | 0.00 | 0.00 | 93 | 1013.0 |
| 20260507204504 | 50 | 110 | 2.0 | 0.0 | 0.00 | 0.00 | 0.00 | 93 | 1012.0 |
| 20260507201504 | 52 | 0 | 1.0 | 0.0 | 0.00 | 0.00 | 0.00 | 87 | 1011.0 |
| 20260507194504 | 55 | 360 | 5.0 | 0.0 | 0.00 | 0.00 | 0.00 | 71 | 1011.0 |
| 20260507193004 | 57 | 360 | 3.0 | 0.0 | 0.00 | 0.00 | 0.00 | 67 | 1010.0 |
| 20260507190005 | 57 | 360 | 3.0 | 0.0 | 0.00 | 0.00 | 0.00 | 67 | 1010.0 |
| 20260507184504 | 57 | 360 | 3.0 | 0.0 | 0.00 | 0.00 | 0.00 | 67 | 1010.0 |
| 20260507181504 | 57 | 340 | 5.0 | 0.0 | 0.00 | 0.00 | 0.00 | 67 | 1011.0 |
| 20260507180005 | 55 | 0 | 2.0 | 0.0 | 0.00 | 0.00 | 0.00 | 82 | 1010.0 |
| 20260507174504 | 55 | 0 | 2.0 | 0.0 | 0.00 | 0.00 | 0.00 | 82 | 1010.0 |
| 20260507171504 | 52 | 90 | 5.0 | 0.0 | 0.00 | 0.00 | 0.00 | 93 | 1010.0 |
| 20260507164504 | 52 | 80 | 6.0 | 0.0 | 0.00 | 0.00 | 0.00 | 93 | 1010.0 |
| 20260507163004 | 52 | 10 | 6.0 | 0.0 | 0.00 | 0.00 | 0.00 | 87 | 1011.0 |
| 20260507161503 | 52 | 10 | 6.0 | 0.0 | 0.00 | 0.00 | 0.00 | 87 | 1011.0 |
| 20260507154504 | 54 | 260 | 6.0 | 0.0 | 0.00 | 0.00 | 0.00 | 76 | 1012.0 |
| 20260507151504 | 54 | 330 | 2.0 | 0.0 | 0.00 | 0.00 | 0.00 | 87 | 1012.0 |
| 20260507150009 | 52 | 110 | 5.0 | 0.0 | 0.00 | 0.00 | 0.00 | 87 | 1011.0 |
| 20260507144504 | 52 | 110 | 5.0 | 0.0 | 0.00 | 0.00 | 0.00 | 87 | 1011.0 |
| 20260507143005 | 54 | 100 | 9.0 | 0.0 | 0.00 | 0.00 | 0.00 | 76 | 1011.0 |
| 20260507130005 | 63 | 110 | 3.0 | 0.0 | 0.00 | 0.00 | 0.00 | 55 | 1010.0 |
| 20260507124504 | 63 | 110 | 3.0 | 0.0 | 0.00 | 0.00 | 0.00 | 55 | 1010.0 |
| 20260507123004 | 63 | 0 | 2.0 | 0.0 | 0.00 | 0.00 | 0.00 | 55 | 1010.0 |
| 20260507121504 | 63 | 0 | 2.0 | 0.0 | 0.00 | 0.00 | 0.00 | 55 | 1010.0 |
| 20260507120005 | 63 | 120 | 2.0 | 0.0 | 0.00 | 0.00 | 0.00 | 55 | 1011.0 |
| 20260507114504 | 63 | 340 | 3.0 | 0.0 | 0.00 | 0.00 | 0.00 | 59 | 1011.0 |
| 20260507111506 | 61 | 130 | 2.0 | 0.0 | 0.00 | 0.00 | 0.00 | 59 | 1011.0 |
| 20260507110005 | 61 | 350 | 3.0 | 0.0 | 0.00 | 0.00 | 0.00 | 59 | 1012.0 |
| 20260507104504 | 61 | 350 | 3.0 | 0.0 | 0.00 | 0.00 | 0.00 | 59 | 1012.0 |
| 20260507101505 | 59 | 20 | 2.0 | 0.0 | 0.00 | 0.00 | 0.00 | 62 | 1012.0 |
| 20260507094504 | 59 | 30 | 3.0 | 0.0 | 0.00 | 0.00 | 0.00 | 62 | 1012.0 |
| 20260507091504 | 55 | 0 | 1.0 | 0.0 | 0.00 | 0.00 | 0.00 | 71 | 1012.0 |
| 20260507084504 | 55 | 0 | 2.0 | 0.0 | 0.00 | 0.00 | 0.00 | 71 | 1012.0 |
| 20260507083004 | 54 | 0 | 2.0 | 0.0 | 0.00 | 0.00 | 0.00 | 71 | 1012.0 |
| 20260507081504 | 54 | 0 | 2.0 | 0.0 | 0.00 | 0.00 | 0.00 | 71 | 1012.0 |
| 20260507074504 | 55 | 90 | 3.0 | 0.0 | 0.00 | 0.00 | 0.00 | 66 | 1012.0 |
| 20260507073004 | 54 | 0 | 2.0 | 0.0 | 0.00 | 0.00 | 0.00 | 71 | 1011.0 |
| 20260507071503 | 54 | 0 | 2.0 | 0.0 | 0.00 | 0.00 | 0.00 | 71 | 1011.0 |
| 20260507063004 | 52 | 330 | 3.0 | 0.0 | 0.00 | 0.00 | 0.00 | 76 | 1011.0 |
| 20260507061504 | 52 | 330 | 3.0 | 0.0 | 0.00 | 0.00 | 0.00 | 76 | 1011.0 |
| 20260507060004 | 50 | 340 | 3.0 | 0.0 | 0.00 | 0.00 | 0.00 | 81 | 1011.0 |
| 20260507054504 | 50 | 340 | 3.0 | 0.0 | 0.00 | 0.00 | 0.00 | 81 | 1011.0 |
| 20260507053005 | 50 | 0 | 2.0 | 0.0 | 0.00 | 0.00 | 0.00 | 76 | 1011.0 |
| 20260507051504 | 50 | 0 | 2.0 | 0.0 | 0.00 | 0.00 | 0.00 | 76 | 1011.0 |
| 20260507044504 | 50 | 340 | 7.0 | 0.0 | 0.00 | 0.00 | 0.00 | 76 | 1011.0 |
| 20260507034504 | 50 | 350 | 7.0 | 0.0 | 0.00 | 0.00 | 0.00 | 76 | 1011.0 |
| 20260507033004 | 52 | 350 | 6.0 | 0.0 | 0.00 | 0.00 | 0.00 | 66 | 1011.0 |
| 20260507030004 | 52 | 360 | 5.0 | 0.0 | 0.00 | 0.00 | 0.00 | 66 | 1011.0 |
| 20260507024503 | 52 | 360 | 5.0 | 0.0 | 0.00 | 0.00 | 0.00 | 66 | 1011.0 |